Precipitable_Water
1.17 1.17 1.14 1.13 1.09 1.02 1.02 0.99 0.97 0.96 0.94 0.92 0.91 0.89 0.88 0.87 0.87 0.87 0.85 0.83 0.80 0.78 0.78 0.74 0.63 0.58 0.58
1.11 1.08 1.06 1.08 1.02 0.93 0.92 0.93 0.91 0.91 0.90 0.91 0.92 0.91 0.90 0.88 0.86 0.85 0.87 0.84 0.85 0.83 0.80 0.77 0.70 0.62 0.60
1.02 1.06 0.96 0.94 0.93 0.89 0.89 0.90 0.90 0.88 0.89 0.92 0.92 0.90 0.90 0.89 0.89 0.85 0.86 0.85 0.85 0.84 0.83 0.80 0.75 0.67 0.62
0.92 0.92 0.93 0.93 0.92 0.81 0.78 0.83 0.84 0.85 0.85 0.87 0.86 0.87 0.87 0.91 0.89 0.87 0.88 0.86 0.87 0.84 0.83 0.80 0.77 0.73 0.67
0.80 0.81 0.79 0.79 0.77 0.80 0.77 0.80 0.81 0.83 0.79 0.77 0.78 0.80 0.80 0.84 0.88 0.87 0.89 0.86 0.88 0.87 0.84 0.82 0.76 0.75 0.71
0.78 0.73 0.75 0.78 0.80 0.76 0.74 0.69 0.62 0.77 0.72 0.73 0.81 0.78 0.80 0.83 0.85 0.87 0.88 0.83 0.84 0.89 0.86 0.85 0.79 0.75 0.74
0.77 0.78 0.78 0.79 0.79 0.75 0.71 0.69 0.66 0.76 0.77 0.71 0.80 0.74 0.82 0.85 0.87 0.86 0.86 0.87 0.85 0.91 0.86 0.85 0.80 0.77 0.77
0.90 0.88 0.85 0.86 0.83 0.80 0.78 0.79 0.80 0.82 0.80 0.68 0.76 0.75 0.80 0.82 0.85 0.85 0.85 0.87 0.88 0.88 0.87 0.84 0.80 0.78 0.76
0.96 0.95 0.93 0.91 0.90 0.86 0.78 0.75 0.69 0.71 0.83 0.76 0.76 0.75 0.77 0.77 0.85 0.86 0.88 0.88 0.88 0.88 0.87 0.84 0.82 0.81 0.77
0.90 0.91 0.91 0.90 0.92 0.90 0.84 0.73 0.72 0.67 0.79 0.73 0.73 0.74 0.65 0.74 0.78 0.80 0.83 0.85 0.87 0.87 0.86 0.84 0.83 0.80 0.75
0.85 0.85 0.85 0.86 0.87 0.89 0.89 0.81 0.73 0.71 0.80 0.76 0.71 0.70 0.67 0.64 0.69 0.74 0.76 0.79 0.81 0.82 0.83 0.83 0.81 0.77 0.73
0.77 0.77 0.79 0.80 0.83 0.84 0.84 0.83 0.82 0.77 0.79 0.77 0.69 0.69 0.65 0.60 0.60 0.68 0.71 0.74 0.76 0.76 0.78 0.79 0.77 0.75 0.74
0.72 0.73 0.76 0.80 0.81 0.77 0.77 0.76 0.76 0.76 0.76 0.75 0.72 0.69 0.66 0.61 0.60 0.62 0.64 0.68 0.72 0.72 0.72 0.71 0.70 0.70 0.66
0.70 0.73 0.75 0.74 0.73 0.73 0.68 0.68 0.66 0.66 0.71 0.72 0.71 0.68 0.62 0.63 0.62 0.60 0.63 0.61 0.66 0.67 0.67 0.67 0.67 0.66 0.64
0.69 0.69 0.68 0.70 0.69 0.69 0.66 0.66 0.63 0.63 0.63 0.66 0.67 0.67 0.65 0.62 0.57 0.59 0.59 0.60 0.62 0.62 0.62 0.59 0.60 0.58 0.57
0.66 0.66 0.66 0.66 0.64 0.63 0.64 0.65 0.64 0.64 0.63 0.64 0.62 0.60 0.59 0.60 0.62 0.57 0.58 0.57 0.59 0.59 0.57 0.54 0.52 0.52 0.49
0.51 0.55 0.57 0.59 0.59 0.60 0.63 0.63 0.62 0.62 0.62 0.63 0.61 0.57 0.52 0.49 0.55 0.61 0.55 0.55 0.54 0.52 0.50 0.46 0.42 0.39 0.36
Wind_Speed
31 29 30 30 33 35 36 37 36 36 37 37 38 38 38 38 38 38 38 39 40 40 40 40 40 40 40
34 33 33 32 32 33 34 35 36 37 38 38 38 39 40 40 40 40 40 41 41 42 41 41 41 41 40
35 34 34 34 34 35 35 36 37 38 38 39 40 40 41 42 42 42 43 43 43 43 43 42 41 41 41
39 38 36 36 36 36 36 37 37 38 39 39 40 41 42 43 44 44 44 43 44 44 43 42 42 42 41
39 38 37 36 36 36 37 37 39 39 40 41 42 43 44 45 45 46 45 45 44 44 44 44 43 42 42
38 38 38 38 38 37 38 38 39 41 42 42 42 44 44 45 45 45 45 45 45 45 44 44 44 43 43
38 38 39 39 40 40 41 40 40 40 39 41 42 44 44 44 45 45 46 46 46 45 45 45 44 44 42
40 39 40 39 40 40 40 40 40 41 41 42 42 43 43 43 43 44 44 45 45 45 45 45 44 44 42
41 41 41 40 40 40 40 40 41 41 41 41 40 41 41 42 41 43 43 43 43 44 43 43 43 42 41
40 40 39 39 39 39 39 39 39 38 39 39 38 37 37 37 38 40 41 42 42 43 42 43 42 40 39
35 35 35 35 36 36 37 37 37 38 37 37 36 36 36 37 36 36 37 39 40 41 42 40 38 40 39
33 33 33 34 34 34 34 34 36 37 36 36 36 35 35 34 34 33 33 34 36 35 35 36 36 35 35
32 32 32 32 32 32 32 33 33 33 34 35 35 34 33 32 31 30 30 30 31 31 30 31 30 31 32
31 31 30 30 30 30 30 30 30 30 30 31 32 32 32 32 30 29 29 27 26 26 26 26 28 30 33
29 29 29 29 29 30 29 29 28 28 28 28 28 28 28 28 28 27 25 23 22 21 23 26 28 31 32
27 27 27 28 28 28 29 29 28 27 26 26 25 24 24 23 23 23 23 22 23 24 25 27 30 31 33
26 26 26 26 27 27 27 28 28 27 26 25 24 23 21 21 21 21 22 23 24 26 28 28 29 31 33
Wind_Direction
246 248 250 251 251 250 252 253 254 255 258 260 262 264 266 268 269 271 271 272 275 277 279 281 282 284 286
246 249 251 252 254 255 255 255 255 258 260 262 263 264 266 268 270 271 272 273 274 276 278 280 282 283 285
248 250 253 254 255 257 257 258 259 260 261 263 265 266 267 269 269 271 272 274 274 275 277 278 280 282 284
251 252 255 255 256 258 259 259 261 261 263 265 267 268 269 269 270 272 273 273 274 275 275 277 278 280 282
250 252 253 254 257 259 260 262 263 264 266 267 269 269 271 271 271 272 271 273 274 273 274 275 276 279 281
249 252 254 255 257 259 260 263 266 266 267 268 269 271 273 271 272 271 271 273 273 272 274 274 275 277 279
250 252 254 256 259 260 262 263 265 267 269 270 271 273 272 273 271 272 271 272 271 271 272 274 275 275 277
251 254 257 259 260 262 263 264 265 267 269 271 272 274 273 272 272 272 272 272 271 270 270 272 273 274 274
253 256 257 258 260 262 262 264 266 268 269 271 273 274 275 273 273 273 273 272 271 270 270 271 272 272 271
253 254 256 258 259 261 263 263 265 268 269 269 272 273 277 276 276 274 273 272 271 270 270 271 270 270 271
252 253 255 257 259 261 262 263 264 266 268 269 271 273 274 278 278 278 277 275 272 271 270 267 267 270 272
250 253 254 257 259 261 264 265 266 267 268 269 271 270 273 277 278 279 280 278 275 272 268 267 268 269 270
251 255 257 258 260 262 265 267 268 269 269 269 269 270 271 274 277 279 281 281 276 272 269 267 267 269 273
253 255 257 258 259 262 265 265 267 269 270 270 269 269 270 272 274 278 278 280 277 272 268 269 270 274 277
253 255 256 258 259 261 264 264 267 269 270 271 271 271 271 271 273 274 274 275 276 271 272 275 277 280 282
254 255 256 257 260 262 264 263 264 268 268 269 269 269 270 272 271 271 270 272 275 276 278 281 283 285 286
255 255 257 258 259 263 263 262 264 266 265 264 265 266 267 269 272 274 274 276 278 280 282 284 286 287 289